Regional Weather Roundup
Issued by NWS

Home | Current Version | Previous Version | Text Only | Print | Product List | Glossary On
Versions: 1 2 3 4 5 6 7 8 9 10 11 12 13 14 15 16 17 18 19 20 21 22 23 24 25 26 27 28 29 30 31 32 33 34 35 36 37 38 39 40 41 42 43 44 45 46 47 48 49 50
000
ASUS43 KLOT 160810
RWRIL

ILLINOIS REGIONAL WEATHER ROUNDUP
NATIONAL WEATHER SERVICE CHICAGO/ROMEOVILLE IL
300 AM CDT WED APR 16 2014

NOTE: "FAIR" INDICATES FEW OR NO CLOUDS BELOW 12,000 FEET WITH NO
SIGNIFICANT WEATHER AND/OR OBSTRUCTIONS TO VISIBILITY.

* THESE STATIONS ARE NOT UNDER NWS QUALITY CONTROL. THEY ALSO MAY NOT
  REPORT WEATHER SUCH AS PRECIPITATION OR FOG.

ILZ001-002-007-009-015-016-024-160900-
NORTHWEST ILLINOIS

CITY           SKY/WX    TMP DP  RH WIND       PRES   REMARKS
MOLINE         CLEAR     31  20  63 SE8       30.15S WCI  23
STERLING*      CLEAR     30  21  69 SE7       30.18S WCI  23
SAVANNA*       CLEAR     32  20  62 SE9       30.16S WCI  24
$$

ILZ003-004-008-010-011-017-018-160900-
NORTH CENTRAL ILLINOIS

CITY           SKY/WX    TMP DP  RH WIND       PRES   REMARKS
ROCKFORD       CLEAR     28  20  71 SE8       30.21S WCI  20
FREEPORT*      MOCLDY    29  24  82 SE9       30.19S WCI  20
ROCHELLE*      CLEAR     29  24  82 SE9       30.20F WCI  21
DE KALB*       CLEAR     27  21  79 SE9       30.21S WCI  18
PERU*          CLEAR     32  25  74 SE9       30.21R WCI  24
$$

ILZ005-006-012>014-019>023-160900-
NORTHEAST ILLINOIS

CITY           SKY/WX    TMP DP  RH WIND       PRES   REMARKS
CHICAGO-OHARE  CLEAR     28  18  66 S6        30.23R WCI  22
CHICAGO-MIDWAY CLEAR     32  21  64 S5        30.24R WCI  27
AURORA         CLEAR     28  21  75 SE6       30.23R WCI  22
LANSING*       CLEAR     28  20  71 S3        30.26R
WAUKEGAN       CLEAR     23  21  92 CALM      30.22S
DUPAGE AIRPORT CLEAR     27  20  75 S5        30.22R WCI  22
KANKAKEE*      CLEAR     29  23  78 SE6       30.26S WCI  23
WHEELING       CLEAR     28  22  78 CALM      30.25R
MORRIS*        CLEAR     31  22  69 SE7       30.23R WCI  24
ROMEOVILLE*    CLEAR     28  22  78 S8        30.24R WCI  20
NORTHERLY ISL    N/A     33  21  61 S5          N/A  WCI  29
$$

LMZ740>746-160900-
SOUTHERN LAKE MICHIGAN

STATION/POSITION SKY/WX   TEMP    WIND        PRES    VSBY  WAVE
                          AIR SEA DIR/SP/G                  HT/PER
                          (F)     (DEG/KT/KT) (MB)    (MI)  (FT/S)
WAUKEGAN HARBOR            34     210/  8/ 10 1024.7S
HARRISON CRIB              35     190/ 14/ 16   N/A
BURNHAM HARBOR             34     200/  7       N/A
CALUMET HARBOR             31     170/  5/  6 1024.9R
MICHIGAN CITY              30     140/  9/ 11   N/A
$$

ILZ025>027-034>036-040-047-049-050-058-095>099-160900-
WEST-CENTRAL ILLINOIS

CITY           SKY/WX    TMP DP  RH WIND       PRES   REMARKS
QUINCY         CLEAR     37  22  54 S13       30.12F WCI  29
GALESBURG*     CLEAR     32  25  76 SE7       30.15R WCI  26
MACOMB*        PTCLDY    33  26  75 SE10      30.17S WCI  25
JACKSONVILLE*  CLEAR     36  25  64 SE10      30.19S WCI  28
PITTSFIELD*    CLEAR     36  26  67 SE9       30.18R WCI  29
$$

ILZ028>032-037-038-041>044-048-051>054-059>061-160900-
CENTRAL ILLINOIS

CITY           SKY/WX    TMP DP  RH WIND       PRES   REMARKS
PONTIAC        CLEAR     32  27  80 SE8       30.23S WCI  25
BLOOMINGTON    CLEAR     28  21  75 SE9       30.23R WCI  19
DECATUR        CLEAR     30  23  75 SE7       30.23S WCI  23
PEORIA         CLEAR     34  21  59 SE9       30.20R WCI  27
LACON*         CLEAR     32  22  66 SE9       30.20S WCI  24
LINCOLN*       CLEAR     32  27  80 S6        30.23S WCI  26
SPRINGFIELD    CLEAR     36  23  59 S13       30.21S WCI  27
TAYLORVILLE    CLEAR     32  25  74 SE9       30.23R WCI  24
$$

ILZ033-039-045-046-055>057-062-063-160900-
EAST-CENTRAL ILLINOIS

CITY           SKY/WX    TMP DP  RH WIND       PRES   REMARKS
CHAMPAIGN      CLEAR     30  25  81 SE7       30.25R WCI  23
RANTOUL*       CLEAR     32  26  80 CALM      30.26S
MATTOON        CLEAR     32  23  69 SE8       30.25R WCI  25
PARIS*         CLEAR     31  26  81 SE5       30.28R WCI  26
$$

ILZ079-100>102-160900-
SOUTHWEST ILLINOIS

CITY           SKY/WX    TMP DP  RH WIND       PRES   REMARKS
ALTON          PTCLDY    36  22  56 SE9       30.23R WCI  29
BELLEVILLE     PTCLDY    34  26  73 SE7       30.23F WCI  28
CAHOKIA*       MOCLDY    37  25  61 S6        30.23S WCI  32
SPARTA*        PTCLDY    34  27  75 SE5       30.26S WCI  30
$$

ILZ064>066-069>071-074>076-080>082-084>086-088>090-092>094-160900-
SOUTH-CENTRAL ILLINOIS

CITY           SKY/WX    TMP DP  RH WIND       PRES   REMARKS
CARBONDALE     CLEAR     34  23  64 SE6       30.26F WCI  29
CAIRO*         CLEAR     39  27  60 SE6       30.27F
MARION         CLEAR     34  25  69 SE5       30.27F WCI  30
MT. VERNON     CLEAR     32  18  55 CALM      30.27S
CENTRALIA*       N/A     33  25  70 SE6       30.25S WCI  28
SALEM*         CLEAR     37  26  65 SE5       30.26S WCI  33
METROPOLIS*    CLEAR     32  27  81 CALM      30.28S
$$

ILZ067-068-072-073-078-083-087-091-160900-
SOUTHEAST ILLINOIS

CITY           SKY/WX    TMP DP  RH WIND       PRES   REMARKS
FLORA*         CLEAR     31  26  83 S3        30.27S
FAIRFIELD*     CLEAR     34  28  80 CALM      30.28S
HARRISBURG*    CLEAR     33  31  92 CALM      30.29S
ROBINSON*      CLEAR     32  27  83 SE5       30.30S WCI  27
CARMI*         CLEAR     35  32  89 SE6       30.29R WCI  30
$$

ABBREVIATIONS USED IN REMARKS
   TC - TEMPERATURE IN CELSIUS
  WCI - WIND CHILL INDEX
   HX - HEAT INDEX
  VSB - VISIBILITY
$$




USA.gov is the U.S. government's official web portal to all federal, state and local government web resources and services.